START_TIME,STEP,MOV.,M29,t_acc.,H22,t_acc.,H26,t_acc.,H30,t_acc.
1979-03-03 18:00:21.390 ,3,1,0.,24.0,0.,24.0,0.,24.0,0.,24.0
1979-03-03 18:00:45.390 ,4,1,0.,24.0,0.,24.0,0.,24.0,0.,24.0
1979-03-03 18:01:09.390 ,5,1,0.,24.0,0.,24.0,0.,24.0,0.,24.0
1979-03-03 18:01:33.390 ,6,1,0.,24.0,0.,24.0,0.,24.0,0.,24.0
1979-03-03 18:01:57.390 ,7,1,0.,24.0,0.,24.0,0.,24.0,0.,24.0
1979-03-03 18:02:21.390 ,7,1,0.,24.0,0.,24.0,0.,24.0,0.,24.0
1979-03-03 18:02:45.390 ,6,1,0.,24.0,0.,24.0,0.,24.0,0.,24.0
1979-03-03 18:03:09.390 ,5,1,0.,24.0,0.,24.0,0.,24.0,0.,24.0
1979-03-03 18:03:33.390 ,4,1,0.,24.0,0.,24.0,0.,24.0,0.,24.0
1979-03-03 18:03:57.390 ,3,1,0.,24.0,0.,24.0,0.,24.0,0.,24.0
1979-03-03 18:04:21.390 ,2,1,0.,24.0,0.,24.0,0.,24.0,0.,24.0
1979-03-03 18:04:45.390 ,1,1,0.,24.0,0.,24.0,0.,24.0,0.,24.0
1979-03-03 18:05:09.390 ,0,1,0.,24.0,0.,24.0,0.,24.0,0.,24.0
1979-03-03 18:05:33.390 ,0,1,0.,24.0,0.,24.0,0.,24.0,0.,24.0
1979-03-03 18:05:57.390 ,1,1,0.,24.0,0.,24.0,0.,24.0,0.,24.0
1979-03-03 18:06:21.390 ,2,1,0.,24.0,0.,24.0,0.,24.0,0.,24.0
1979-03-03 18:06:45.390 ,3,1,0.,24.0,0.,24.0,0.,24.0,0.,24.0
1979-03-03 18:07:09.390 ,4,1,0.,24.0,0.,24.0,0.,24.0,0.,24.0
1979-03-03 18:07:33.390 ,5,1,0.,24.0,0.,24.0,0.,24.0,0.,24.0
1979-03-03 18:07:57.390 ,6,1,0.,24.0,0.,24.0,0.,24.0,0.,24.0
1979-03-03 18:08:21.390 ,7,1,0.,24.0,0.,24.0,0.,24.0,0.,24.0
1979-03-03 18:08:45.390 ,7,1,0.,24.0,0.,24.0,0.,24.0,0.,24.0
1979-03-03 18:09:09.390 ,6,1,0.,24.0,0.,24.0,0.,24.0,0.,24.0
1979-03-03 18:09:33.390 ,5,1,0.,24.0,0.,24.0,0.,24.0,0.,24.0
1979-03-03 18:09:57.390 ,4,1,0.,24.0,0.,24.0,0.,24.0,0.,24.0
1979-03-03 18:10:21.390 ,3,1,0.,24.0,0.,24.0,0.,24.0,0.,24.0
1979-03-03 18:10:45.390 ,2,1,0.,24.0,0.,24.0,0.,24.0,0.,24.0
1979-03-03 18:11:09.390 ,1,1,0.,24.0,0.,24.0,0.,24.0,0.,24.0
1979-03-03 18:11:33.390 ,0,1,0.,24.0,0.,24.0,0.,24.0,0.,24.0
1979-03-03 18:11:57.390 ,0,1,0.,24.0,0.,24.0,0.,24.0,0.,24.0
1979-03-03 18:12:21.390 ,1,1,0.,24.0,0.,24.0,0.,24.0,0.,24.0
1979-03-03 18:12:45.390 ,2,1,0.,24.0,0.,24.0,0.,24.0,0.,24.0
1979-03-03 18:13:09.390 ,0,0,0.,24.0,0.,24.0,0.,24.0,0.,24.0
1979-03-03 18:13:48.390 ,0,0,,0,,0,,0,,0
1979-03-03 18:13:57.390 ,5,1,0.,24.0,0.,24.0,0.,24.0,0.,24.0
1979-03-03 18:14:21.390 ,6,1,0.,24.0,0.,24.0,0.,24.0,0.,24.0
1979-03-03 18:14:45.390 ,7,1,0.,24.0,0.,24.0,0.,24.0,0.,24.0
1979-03-03 18:15:09.390 ,7,1,0.,24.0,0.,24.0,0.,24.0,0.,24.0
1979-03-03 18:15:33.390 ,6,1,0.,24.0,0.,24.0,0.,24.0,0.,24.0
1979-03-03 18:15:57.390 ,5,1,0.,24.0,0.,24.0,0.,24.0,0.,24.0
1979-03-03 18:16:21.390 ,4,1,0.,24.0,0.,24.0,0.,24.0,0.,24.0
1979-03-03 18:16:45.390 ,3,1,0.,24.0,0.,24.0,0.,24.0,0.,24.0
1979-03-03 18:17:09.390 ,2,1,0.,24.0,0.,24.0,0.,24.0,0.,24.0
1979-03-03 18:17:33.390 ,1,1,0.,24.0,0.,24.0,0.,24.0,0.,24.0
1979-03-03 18:17:57.390 ,0,1,0.,24.0,0.,24.0,0.,24.0,0.,24.0
1979-03-03 18:18:21.390 ,0,0,0.,24.0,0.,24.0,0.,24.0,0.,24.0
1979-03-03 18:18:45.390 ,1,1,0.,24.0,0.,24.0,0.,24.0,0.,24.0
1979-03-03 18:19:09.390 ,2,1,0.,24.0,0.,24.0,0.,24.0,0.,24.0
1979-03-03 18:19:33.390 ,3,1,0.,24.0,0.,24.0,0.,24.0,0.,24.0
1979-03-03 18:19:57.390 ,4,1,0.,24.0,0.,24.0,0.,24.0,0.,24.0
1979-03-03 18:20:21.390 ,5,1,0.,24.0,0.,24.0,0.,24.0,0.,24.0
1979-03-03 18:20:45.390 ,6,1,0.,24.0,0.,24.0,0.,24.0,0.,24.0
1979-03-03 18:21:09.390 ,7,1,0.,24.0,0.,24.0,0.,24.0,0.,24.0
1979-03-03 18:21:33.390 ,7,1,0.,24.0,0.,24.0,0.,24.0,0.,24.0
1979-03-03 18:21:57.390 ,6,1,0.,24.0,0.,24.0,0.,24.0,0.,24.0
1979-03-03 18:22:21.390 ,5,1,0.,24.0,0.,24.0,0.,24.0,0.,24.0
1979-03-03 18:22:45.390 ,4,1,0.,24.0,0.,24.0,0.,24.0,0.,24.0
1979-03-03 18:23:09.390 ,0,0,,0,,0,,0,,0
1979-03-03 18:23:33.390 ,0,0,,0,,0,,0,,0
1979-03-03 18:57:59.790 ,0,0,0.,24.0,0.,24.0,0.,24.0,0.,24.0
1979-03-03 18:58:21.390 ,4,1,0.,24.0,0.,24.0,0.,24.0,0.,24.0
1979-03-03 18:58:45.390 ,5,1,0.,24.0,0.,24.0,0.,24.0,0.,24.0
1979-03-03 18:59:09.390 ,6,1,0.,24.0,0.,24.0,0.,24.0,0.,24.0
1979-03-03 18:59:33.390 ,7,1,0.,24.0,0.,24.0,0.,24.0,0.,24.0
1979-03-03 18:59:57.390 ,7,1,0.,24.0,0.,24.0,0.,24.0,0.,24.0
1979-03-03 19:00:21.390 ,6,1,0.,24.0,0.,24.0,0.,24.0,0.,24.0
1979-03-03 19:00:45.390 ,5,1,0.,24.0,0.,24.0,0.,24.0,0.,24.0
1979-03-03 19:01:09.390 ,4,1,0.,24.0,0.,24.0,0.,24.0,0.,24.0
1979-03-03 19:01:33.390 ,3,1,0.,24.0,0.,24.0,0.,24.0,0.,24.0
1979-03-03 19:01:57.390 ,2,1,0.,24.0,0.,24.0,0.,24.0,0.,24.0
1979-03-03 19:02:21.390 ,1,1,0.,24.0,0.,24.0,0.,24.0,0.,24.0
1979-03-03 19:02:45.390 ,0,1,0.,24.0,0.,24.0,0.,24.0,0.,24.0
1979-03-03 19:03:09.390 ,0,1,0.,24.0,0.,24.0,0.,24.0,0.,24.0
1979-03-03 19:03:33.390 ,1,1,0.,24.0,0.,24.0,0.,24.0,0.,24.0
1979-03-03 19:03:57.390 ,2,1,0.,24.0,0.,24.0,0.,24.0,0.,24.0
1979-03-03 19:04:21.390 ,3,1,0.,24.0,0.,24.0,0.,24.0,0.,24.0
1979-03-03 19:04:45.390 ,4,1,0.,24.0,0.,24.0,0.,24.0,0.,24.0
1979-03-03 19:05:09.390 ,5,1,0.,24.0,0.,24.0,0.,24.0,0.,24.0
1979-03-03 19:05:33.390 ,6,1,0.,24.0,0.,24.0,0.,24.0,0.,24.0
1979-03-03 19:05:57.390 ,7,1,0.,24.0,0.,24.0,0.,24.0,0.,24.0
1979-03-03 19:06:21.390 ,7,1,0.,24.0,0.,24.0,0.,24.0,0.,24.0
1979-03-03 19:06:45.390 ,6,1,0.,24.0,0.,24.0,0.,24.0,0.,24.0
1979-03-03 19:07:09.390 ,5,1,0.,24.0,0.,24.0,0.,24.0,0.,24.0
1979-03-03 19:07:33.390 ,4,1,0.,24.0,0.,24.0,0.,24.0,0.,24.0
1979-03-03 19:07:57.390 ,3,1,0.,24.0,0.,24.0,0.,24.0,0.,24.0
1979-03-03 19:08:21.390 ,2,1,0.,24.0,0.,24.0,0.,24.0,0.,24.0
1979-03-03 19:08:45.390 ,1,1,0.,24.0,0.,24.0,0.,24.0,0.,24.0
1979-03-03 19:09:09.390 ,0,1,0.,24.0,0.,24.0,0.,24.0,0.,24.0
1979-03-03 19:09:33.390 ,0,1,0.,24.0,0.,24.0,0.,24.0,0.,24.0
1979-03-03 19:09:57.390 ,1,1,0.,24.0,0.,24.0,0.,24.0,0.,24.0
1979-03-03 19:10:21.390 ,2,1,0.,24.0,0.,24.0,0.,24.0,0.,24.0
1979-03-03 19:10:45.390 ,3,1,0.,24.0,0.,24.0,0.,24.0,0.,24.0
1979-03-03 19:11:09.390 ,4,1,0.,24.0,0.,24.0,0.,24.0,0.,24.0
1979-03-03 19:11:33.390 ,5,1,0.,24.0,0.,24.0,0.,24.0,0.,24.0
1979-03-03 19:11:57.390 ,6,1,0.,24.0,0.,24.0,0.,24.0,0.,24.0
1979-03-03 19:12:21.390 ,7,1,0.,24.0,0.,24.0,0.,24.0,0.,24.0
1979-03-03 19:12:45.390 ,7,1,0.,24.0,0.,24.0,0.,24.0,0.,24.0
1979-03-03 19:13:09.390 ,6,1,0.,24.0,0.,24.0,0.,24.0,0.,24.0
1979-03-03 19:13:33.390 ,5,1,0.,24.0,0.,24.0,0.,24.0,0.,24.0
1979-03-03 19:13:57.390 ,4,1,0.,24.0,0.,24.0,0.,24.0,0.,24.0
1979-03-03 19:14:21.390 ,3,1,0.,24.0,0.,24.0,0.,24.0,0.,24.0
1979-03-03 19:14:45.390 ,2,1,0.,24.0,0.,24.0,0.,24.0,0.,24.0
1979-03-03 19:15:09.390 ,1,1,0.,24.0,0.,24.0,0.,24.0,0.,24.0
1979-03-03 19:15:33.390 ,0,1,0.,24.0,0.,24.0,0.,24.0,0.,24.0
1979-03-03 19:15:57.390 ,0,1,0.,24.0,0.,24.0,0.,24.0,0.,24.0
1979-03-03 19:16:21.390 ,1,1,0.,24.0,0.,24.0,0.,24.0,0.,24.0
1979-03-03 19:16:45.390 ,2,1,0.,24.0,0.,24.0,0.,24.0,0.,24.0
1979-03-03 19:17:09.390 ,3,1,0.,24.0,0.,24.0,0.,24.0,0.,24.0
1979-03-03 19:17:33.390 ,4,1,0.,24.0,0.,24.0,0.,24.0,0.,24.0
1979-03-03 19:17:57.390 ,5,1,0.,24.0,0.,24.0,0.,24.0,0.,24.0
1979-03-03 19:18:21.390 ,6,1,0.,24.0,0.,24.0,0.,24.0,0.,24.0
1979-03-03 19:18:45.390 ,7,1,0.,24.0,0.,24.0,0.,24.0,0.,24.0
1979-03-03 19:19:09.390 ,7,1,0.,24.0,0.,24.0,0.,24.0,0.,24.0
1979-03-03 19:19:33.390 ,6,1,0.,24.0,0.,24.0,0.,24.0,0.,24.0
1979-03-03 19:19:57.390 ,5,1,0.,24.0,0.,24.0,0.,24.0,0.,24.0
1979-03-03 19:20:21.390 ,4,1,0.,24.0,0.,24.0,0.,24.0,0.,24.0
1979-03-03 19:20:45.390 ,3,1,0.,24.0,0.,24.0,0.,24.0,0.,24.0
1979-03-03 19:21:09.390 ,2,1,0.,24.0,0.,24.0,0.,24.0,0.,24.0
1979-03-03 19:21:33.390 ,1,1,0.,24.0,0.,24.0,0.,24.0,0.,24.0
1979-03-03 19:21:57.390 ,0,1,0.,24.0,0.,24.0,0.,24.0,0.,24.0
1979-03-03 19:22:21.390 ,0,1,0.,24.0,0.,24.0,0.,24.0,0.,24.0
1979-03-03 19:22:45.390 ,1,1,0.,24.0,0.,24.0,0.,24.0,0.,24.0
1979-03-03 19:23:09.390 ,0,0,0.,24.0,0.,24.0,0.,24.0,0.,24.0
1979-03-03 19:23:33.390 ,3,1,0.,24.0,0.,24.0,0.,24.0,0.,24.0
1979-03-03 19:23:57.390 ,4,1,0.,24.0,0.,24.0,0.,24.0,0.,24.0
1979-03-03 19:24:21.390 ,5,1,0.,24.0,0.,24.0,0.,24.0,0.,24.0
1979-03-03 19:24:45.390 ,6,1,0.,24.0,0.,24.0,0.,24.0,0.,24.0
1979-03-03 19:25:09.390 ,7,1,0.,24.0,0.,24.0,0.,24.0,0.,24.0
1979-03-03 19:25:33.390 ,7,1,0.,24.0,0.,24.0,0.,24.0,0.,24.0
1979-03-03 19:25:57.390 ,6,1,0.,24.0,0.,24.0,0.,24.0,0.,24.0
1979-03-03 19:26:21.390 ,5,1,0.,24.0,0.,24.0,0.,24.0,0.,24.0
1979-03-03 19:26:45.390 ,4,1,0.,24.0,0.,24.0,0.,24.0,0.,24.0
1979-03-03 19:27:09.390 ,3,1,0.,24.0,0.,24.0,0.,24.0,0.,24.0
1979-03-03 19:27:33.390 ,2,1,0.,24.0,0.,24.0,0.,24.0,0.,24.0
1979-03-03 19:27:57.390 ,1,1,0.,24.0,0.,24.0,0.,24.0,0.,24.0
1979-03-03 19:28:21.390 ,0,1,0.,24.0,0.,24.0,0.,24.0,0.,24.0
1979-03-03 19:28:45.390 ,0,1,0.,24.0,0.,24.0,0.,24.0,0.,24.0
1979-03-03 19:29:09.390 ,1,1,0.,24.0,0.,24.0,0.,24.0,0.,24.0
1979-03-03 19:29:33.390 ,2,1,0.,24.0,0.,24.0,0.,24.0,0.,24.0
1979-03-03 19:29:57.390 ,3,1,0.,24.0,0.,24.0,0.,24.0,0.,24.0
1979-03-03 19:30:21.390 ,4,1,0.,24.0,0.,24.0,0.,24.0,0.,24.0
1979-03-03 19:30:45.390 ,5,1,0.,24.0,0.,24.0,0.,24.0,0.,24.0
1979-03-03 19:31:09.390 ,6,1,0.,24.0,0.,24.0,0.,24.0,0.,24.0
1979-03-03 19:31:33.390 ,7,1,0.,24.0,0.,24.0,0.,24.0,0.,24.0
1979-03-03 19:31:57.390 ,7,1,0.,24.0,0.,24.0,0.,24.0,0.,24.0
1979-03-03 19:32:21.390 ,6,1,0.,24.0,0.,24.0,0.,24.0,0.,24.0
1979-03-03 19:32:45.390 ,5,1,0.,24.0,0.,24.0,0.,24.0,0.,24.0
1979-03-03 19:33:09.390 ,4,1,0.,24.0,0.,24.0,0.,24.0,0.,24.0
1979-03-03 19:33:33.390 ,3,1,0.,24.0,0.,24.0,0.,24.0,0.,24.0
1979-03-03 19:33:57.390 ,2,1,0.,24.0,0.,24.0,0.,24.0,0.,24.0
1979-03-03 19:34:21.390 ,1,1,0.,24.0,0.,24.0,0.,24.0,0.,24.0
1979-03-03 19:34:45.390 ,0,1,0.,24.0,0.,24.0,0.,24.0,0.,24.0
1979-03-03 19:35:09.390 ,0,1,0.,24.0,0.,24.0,0.,24.0,0.,24.0
1979-03-03 19:35:33.390 ,1,1,0.,24.0,0.,24.0,0.,24.0,0.,24.0
1979-03-03 19:35:57.390 ,2,1,0.,24.0,0.,24.0,0.,24.0,0.,24.0
1979-03-03 19:36:21.390 ,3,1,0.,24.0,0.,24.0,0.,24.0,0.,24.0
1979-03-03 19:36:45.390 ,4,1,0.,24.0,0.,24.0,0.,24.0,0.,24.0
1979-03-03 19:37:09.390 ,5,1,0.,24.0,0.,24.0,0.,24.0,0.,24.0
1979-03-03 19:37:33.390 ,6,1,0.,24.0,0.,24.0,0.,24.0,0.,24.0
1979-03-03 19:37:57.390 ,7,1,0.,24.0,0.,24.0,0.,24.0,0.,24.0
1979-03-03 19:38:21.390 ,7,1,0.,24.0,0.,24.0,0.,24.0,0.,24.0
1979-03-03 19:38:45.390 ,6,1,0.,24.0,0.,24.0,0.,24.0,0.,24.0
1979-03-03 19:39:09.390 ,5,1,0.,24.0,0.,24.0,0.,24.0,0.,24.0
1979-03-03 19:39:33.390 ,4,1,0.,24.0,0.,24.0,0.,24.0,0.,24.0
1979-03-03 19:39:57.390 ,3,1,0.,24.0,0.,24.0,0.,24.0,0.,24.0
1979-03-03 19:40:21.390 ,2,1,0.,24.0,0.,24.0,0.,24.0,0.,24.0
1979-03-03 19:40:45.390 ,1,1,0.,24.0,0.,24.0,0.,24.0,0.,24.0
1979-03-03 19:41:09.390 ,0,1,0.,24.0,0.,24.0,0.,24.0,0.,24.0
1979-03-03 19:41:33.390 ,0,1,0.,24.0,0.,24.0,0.,24.0,0.,24.0
1979-03-03 19:41:57.390 ,1,1,0.,24.0,0.,24.0,0.,24.0,0.,24.0
1979-03-03 19:42:21.390 ,2,1,0.,24.0,0.,24.0,0.,24.0,0.,24.0
1979-03-03 19:42:45.390 ,3,1,0.,24.0,0.,24.0,0.,24.0,0.,24.0
1979-03-03 19:43:09.390 ,4,1,0.,24.0,0.,24.0,0.,24.0,0.,24.0
1979-03-03 19:43:33.390 ,0,0,0.,24.0,0.,24.0,0.,24.0,0.,24.0
1979-03-03 20:35:26.190 ,0,0,,0,,0,,0,,0
1979-03-03 20:35:33.390 ,0,0,0.,24.0,0.,24.0,0.,24.0,0.,24.0
1979-03-03 20:35:57.390 ,7,1,0.,24.0,0.,24.0,0.,24.0,0.,24.0
1979-03-03 20:36:21.390 ,6,1,0.,24.0,0.,24.0,0.,24.0,0.,24.0
1979-03-03 20:36:45.390 ,5,1,0.,24.0,0.,24.0,0.,24.0,0.,24.0
1979-03-03 20:37:09.390 ,0,0,0.,24.0,0.,24.0,0.,24.0,0.,24.0
1979-03-03 20:37:33.390 ,0,0,0.,24.0,0.,24.0,0.,24.0,0.,24.0
1979-03-03 20:37:57.390 ,2,1,0.,24.0,0.,24.0,0.,24.0,0.,24.0
1979-03-03 20:38:21.390 ,1,1,0.,24.0,0.,24.0,0.,24.0,0.,24.0
1979-03-03 20:38:45.390 ,0,1,0.,24.0,0.,24.0,0.,24.0,0.,24.0
1979-03-03 20:39:09.390 ,0,1,0.,24.0,0.,24.0,0.,24.0,0.,24.0
1979-03-03 20:39:33.390 ,1,1,0.,24.0,0.,24.0,0.,24.0,0.,24.0
1979-03-03 20:39:57.390 ,2,1,0.,24.0,0.,24.0,0.,24.0,0.,24.0
1979-03-03 20:40:21.390 ,3,1,0.,24.0,0.,24.0,0.,24.0,0.,24.0
1979-03-03 20:40:45.390 ,0,0,0.,24.0,0.,24.0,0.,24.0,0.,24.0
1979-03-03 20:41:09.390 ,5,1,0.,24.0,0.,24.0,0.,24.0,0.,24.0
1979-03-03 20:41:33.390 ,6,1,0.,24.0,0.,24.0,0.,24.0,0.,24.0
1979-03-03 20:41:57.390 ,7,1,0.,24.0,0.,24.0,0.,24.0,0.,24.0
1979-03-03 20:42:21.390 ,7,1,0.,24.0,0.,24.0,0.,24.0,0.,24.0
1979-03-03 20:42:45.390 ,6,1,0.,24.0,0.,24.0,0.,24.0,0.,24.0
1979-03-03 20:43:09.390 ,5,1,0.,24.0,0.,24.0,0.,24.0,0.,24.0
1979-03-03 20:43:33.390 ,4,1,0.,24.0,0.,24.0,0.,24.0,0.,24.0
1979-03-03 20:43:57.390 ,3,1,0.,24.0,0.,24.0,0.,24.0,0.,24.0
1979-03-03 20:44:21.390 ,2,1,0.,24.0,0.,24.0,0.,24.0,0.,24.0
1979-03-03 20:44:45.390 ,1,1,0.,24.0,0.,24.0,0.,24.0,0.,24.0
1979-03-03 20:45:09.390 ,0,1,0.,24.0,0.,24.0,0.,24.0,0.,24.0
1979-03-03 20:45:33.390 ,0,1,0.,24.0,0.,24.0,0.,24.0,0.,24.0
1979-03-03 20:45:57.390 ,1,1,0.,24.0,0.,24.0,0.,24.0,0.,24.0
1979-03-03 20:46:21.390 ,2,1,0.,24.0,0.,24.0,0.,24.0,0.,24.0
1979-03-03 20:46:45.390 ,3,1,0.,24.0,0.,24.0,0.,24.0,0.,24.0
1979-03-03 20:47:09.390 ,4,1,0.,24.0,0.,24.0,0.,24.0,0.,24.0
1979-03-03 20:47:33.390 ,5,1,0.,24.0,0.,24.0,0.,24.0,0.,24.0
1979-03-03 20:47:57.390 ,6,1,0.,24.0,0.,24.0,0.,24.0,0.,24.0
1979-03-03 20:48:21.390 ,7,1,0.,24.0,0.,24.0,0.,24.0,0.,24.0
1979-03-03 20:48:45.390 ,7,1,0.,24.0,0.,24.0,0.,24.0,0.,24.0
1979-03-03 20:49:09.390 ,6,1,0.,24.0,0.,24.0,0.,24.0,0.,24.0
1979-03-03 20:49:33.390 ,5,1,0.,24.0,0.,24.0,0.,24.0,0.,24.0
1979-03-03 20:49:57.390 ,4,1,0.,24.0,0.,24.0,0.,24.0,0.,24.0
1979-03-03 20:50:21.390 ,3,1,0.,24.0,0.,24.0,0.,24.0,0.,24.0
1979-03-03 20:50:45.390 ,2,1,0.,24.0,0.,24.0,0.,24.0,0.,24.0
1979-03-03 20:51:09.390 ,1,1,0.,24.0,0.,24.0,0.,24.0,0.,24.0
1979-03-03 20:51:33.390 ,0,1,0.,24.0,0.,24.0,0.,24.0,0.,24.0
1979-03-03 20:51:57.390 ,0,1,0.,24.0,0.,24.0,0.,24.0,0.,24.0
1979-03-03 20:52:21.390 ,1,1,0.,24.0,0.,24.0,0.,24.0,0.,24.0
1979-03-03 20:52:45.390 ,2,1,0.,24.0,0.,24.0,0.,24.0,0.,24.0
1979-03-03 20:53:09.390 ,3,1,0.,24.0,0.,24.0,0.,24.0,0.,24.0
1979-03-03 20:53:33.390 ,4,1,0.,24.0,0.,24.0,0.,24.0,0.,24.0
1979-03-03 20:53:57.390 ,5,1,0.,24.0,0.,24.0,0.,24.0,0.,24.0
1979-03-03 20:54:21.390 ,6,1,0.,24.0,0.,24.0,0.,24.0,0.,24.0
1979-03-03 20:54:45.390 ,7,1,0.,24.0,0.,24.0,0.,24.0,0.,24.0
1979-03-03 20:55:09.390 ,7,1,0.,24.0,0.,24.0,0.,24.0,0.,24.0
1979-03-03 20:55:33.390 ,6,1,0.,24.0,0.,24.0,0.,24.0,0.,24.0
1979-03-03 20:55:57.390 ,5,1,0.,24.0,0.,24.0,0.,24.0,0.,24.0
1979-03-03 20:56:21.390 ,4,1,0.,24.0,0.,24.0,0.,24.0,0.,24.0
1979-03-03 20:56:45.390 ,3,1,0.,24.0,0.,24.0,0.,24.0,0.,24.0
1979-03-03 20:57:09.390 ,2,1,0.,24.0,0.,24.0,0.,24.0,0.,24.0
1979-03-03 20:57:33.390 ,1,1,0.,24.0,0.,24.0,0.,24.0,0.,24.0
1979-03-03 20:57:57.390 ,0,1,0.,24.0,0.,24.0,0.,24.0,0.,24.0
1979-03-03 20:58:21.390 ,0,1,0.,24.0,0.,24.0,0.,24.0,0.,24.0
1979-03-03 20:58:45.390 ,1,1,0.,24.0,0.,24.0,0.,24.0,0.,24.0
1979-03-03 20:59:09.390 ,2,1,0.,24.0,0.,24.0,0.,24.0,0.,24.0
1979-03-03 20:59:33.390 ,3,1,0.,24.0,0.,24.0,0.,24.0,0.,24.0
1979-03-03 20:59:57.390 ,4,1,0.,24.0,0.,24.0,0.,24.0,0.,24.0
